Orbital Elements at Epoch 2459200.5 (2020-Dec-17.0) TDB
Reference: JPL 19 (heliocentric ecliptic J2000)
Element | Value | Uncertainty (1-sigma) | Units |
e | .1641217058842913 | 5.4575e-08 | |
a | 2.395268824418626 | 1.1885e-08 | au |
q | 2.00215321890358 | 1.2992e-07 | au |
i | 21.13648930263393 | 4.6365e-06 | deg |
node | 154.6823941431675 | 1.7344e-05 | deg |
peri | 102.8666469571196 | 2.2838e-05 | deg |
M | 164.8528100122647 | 1.7431e-05 | deg |
tp | 2458580.454338004716 (2019-Apr-06.95433800) | 6.3082e-05 | TDB |
period | 1354.034779884526 3.71 | 1.0078e-05 2.759e-08 | d yr |
n | .2658720480065521 | 1.9788e-09 | deg/d |
Q | 2.788384429933672 | 1.3835e-08 | au |
|
| | Orbit Determination Parameters
Additional Information
|